When you browse on this site, cookies collect data to enhance your experience and personalize the content and advertising you see.
Visit our Privacy Policy to learn more. By continuing to use the site, you agree to this use of cookies and data.
  • En España
  • Lista de países
  • Para 7 días
  • Temperatura del agua
  • El tiempo en el mapa
  • Informadores
  • user-avatar
    Iniciar sesión

    Tiempo cada hora Cvetnoy

    Hoy, 23 Agosto, Viernes

    Tiempo Temperatura Precipitaciones Viento Presión Humedad
    00:00 +15°C° 0 mm 4 mps 754 mmHg 87%
    01:00 +15°C° 0 mm 4 mps 755 mmHg 88%
    02:00 +14°C° 0 mm 4 mps 755 mmHg 87%
    03:00 +14°C° 0 mm 4 mps 755 mmHg 88%
    04:00 +13°C° 0 mm 4 mps 755 mmHg 89%
    05:00 +13°C° 0 mm 4 mps 755 mmHg 89%
    06:00 +14°C° 0 mm 4 mps 755 mmHg 86%
    07:00 +15°C° 0 mm 4 mps 756 mmHg 83%
    08:00 +17°C° 0 mm 5 mps 756 mmHg 79%
    09:00 +19°C° 0 mm 5 mps 756 mmHg 75%
    10:00 +20°C° 0 mm 5 mps 756 mmHg 70%
    11:00 +21°C° 0 mm 5 mps 756 mmHg 66%
    12:00 +22°C° 0 mm 4 mps 756 mmHg 64%
    13:00 +22°C° 0 mm 4 mps 756 mmHg 62%
    14:00 +22°C° 0 mm 4 mps 756 mmHg 60%
    15:00 +22°C° 0 mm 4 mps 755 mmHg 64%
    16:00 +22°C° 0 mm 3 mps 755 mmHg 68%
    17:00 +21°C° 0 mm 2 mps 755 mmHg 72%
    18:00 +20°C° 0 mm 2 mps 755 mmHg 75%
    19:00 +18°C° 0 mm 2 mps 755 mmHg 79%
    20:00 +16°C° 0 mm 2 mps 755 mmHg 83%
    21:00 +16°C° 0 mm 2 mps 755 mmHg 85%
    22:00 +15°C° 0 mm 2 mps 755 mmHg 87%
    23:00 +15°C° 0 mm 2 mps 755 mmHg 89%

    Mañana, 24 Agosto, Sábado

    Tiempo Temperatura Precipitaciones Viento Presión Humedad
    00:00 +14°C° 0 mm 2 mps 755 mmHg 89%
    01:00 +14°C° 0 mm 2 mps 755 mmHg 90%
    02:00 +14°C° 0 mm 2 mps 755 mmHg 90%
    03:00 +14°C° 0 mm 2 mps 755 mmHg 90%
    04:00 +13°C° 0 mm 2 mps 755 mmHg 90%
    05:00 +13°C° 0 mm 1 mps 755 mmHg 90%
    06:00 +15°C° 0 mm 1 mps 755 mmHg 84%
    07:00 +18°C° 0 mm 1 mps 755 mmHg 78%
    08:00 +20°C° 0 mm 1 mps 755 mmHg 72%
    09:00 +21°C° 0 mm 1 mps 755 mmHg 66%
    10:00 +22°C° 0 mm 1 mps 755 mmHg 60%
    11:00 +23°C° 0 mm 1 mps 755 mmHg 54%
    12:00 +24°C° 0 mm 1 mps 754 mmHg 52%
    13:00 +24°C° 0 mm 2 mps 754 mmHg 51%
    14:00 +24°C° 0 mm 2 mps 754 mmHg 49%
    15:00 +24°C° 0 mm 2 mps 754 mmHg 53%
    16:00 +24°C° 0 mm 1 mps 753 mmHg 58%
    17:00 +23°C° 0 mm 1 mps 753 mmHg 62%
    18:00 +21°C° 0 mm 1 mps 753 mmHg 66%
    19:00 +20°C° 0 mm 1 mps 753 mmHg 70%
    20:00 +18°C° 0 mm 1 mps 753 mmHg 75%
    21:00 +16°C° 0 mm 1 mps 753 mmHg 78%
    22:00 +16°C° 0 mm 1 mps 753 mmHg 80%
    23:00 +15°C° 0 mm 2 mps 753 mmHg 83%

    Pasado mañana, 25 Agosto, Domingo

    Tiempo Temperatura Precipitaciones Viento Presión Humedad
    00:00 +15°C° 0 mm 2 mps 753 mmHg 86%
    01:00 +15°C° 0 mm 2 mps 753 mmHg 89%
    02:00 +15°C° 0 mm 2 mps 753 mmHg 91%
    03:00 +14°C° 0 mm 2 mps 753 mmHg 92%
    04:00 +14°C° 0 mm 2 mps 753 mmHg 93%
    05:00 +14°C° 0 mm 2 mps 753 mmHg 94%
    06:00 +16°C° 0 mm 2 mps 753 mmHg 90%
    07:00 +17°C° 0 mm 2 mps 753 mmHg 85%
    08:00 +19°C° 0 mm 3 mps 753 mmHg 80%
    09:00 +20°C° 0 mm 3 mps 754 mmHg 75%
    10:00 +21°C° 0 mm 3 mps 754 mmHg 70%
    11:00 +22°C° 0 mm 4 mps 754 mmHg 64%
    12:00 +22°C° 0 mm 4 mps 754 mmHg 61%
    13:00 +23°C° 0 mm 4 mps 754 mmHg 58%
    14:00 +23°C° 0 mm 4 mps 754 mmHg 55%
    15:00 +22°C° 0 mm 4 mps 754 mmHg 59%
    16:00 +22°C° 0 mm 3 mps 754 mmHg 63%
    17:00 +21°C° 0 mm 3 mps 754 mmHg 67%
    18:00 +19°C° 0 mm 2 mps 754 mmHg 71%
    19:00 +18°C° 0 mm 2 mps 754 mmHg 75%
    20:00 +16°C° 0 mm 2 mps 755 mmHg 79%
    21:00 +15°C° 0 mm 2 mps 755 mmHg 82%
    22:00 +15°C° 0 mm 2 mps 755 mmHg 84%
    23:00 +14°C° 0 mm 2 mps 756 mmHg 86%

    26 Agosto, Lunes

    Tiempo Temperatura Precipitaciones Viento Presión Humedad
    00:00 +14°C° 0 mm 2 mps 756 mmHg 88%
    01:00 +14°C° 0 mm 2 mps 756 mmHg 89%
    02:00 +13°C° 0 mm 2 mps 756 mmHg 91%
    03:00 +13°C° 0 mm 2 mps 756 mmHg 91%
    04:00 +13°C° 0 mm 2 mps 756 mmHg 92%
    05:00 +12°C° 0 mm 1 mps 756 mmHg 92%
    06:00 +14°C° 0 mm 2 mps 756 mmHg 85%
    07:00 +16°C° 0 mm 2 mps 757 mmHg 78%
    08:00 +17°C° 0 mm 2 mps 757 mmHg 72%
    09:00 +19°C° 0 mm 2 mps 757 mmHg 66%
    10:00 +20°C° 0 mm 2 mps 757 mmHg 61%
    11:00 +21°C° 0 mm 2 mps 757 mmHg 55%
    12:00 +22°C° 0 mm 1 mps 756 mmHg 53%
    13:00 +23°C° 0 mm 1 mps 756 mmHg 50%
    14:00 +23°C° 0 mm 1 mps 756 mmHg 48%
    15:00 +23°C° 0 mm 1 mps 755 mmHg 52%
    16:00 +23°C° 0 mm 1 mps 755 mmHg 56%
    17:00 +21°C° 0 mm 0 mps 755 mmHg 59%
    18:00 +19°C° 0 mm 0 mps 755 mmHg 62%
    19:00 +17°C° 0 mm 0 mps 755 mmHg 65%
    20:00 +15°C° 0 mm 0 mps 754 mmHg 67%
    21:00 +16°C° 0 mm 1 mps 754 mmHg 68%
    22:00 +15°C° 0 mm 1 mps 754 mmHg 69%
    23:00 +15°C° 0 mm 1 mps 754 mmHg 70%

    27 Agosto, Martes

    Tiempo Temperatura Precipitaciones Viento Presión Humedad
    00:00 +15°C° 0 mm 1 mps 754 mmHg 72%
    01:00 +14°C° 0 mm 1 mps 754 mmHg 73%
    02:00 +14°C° 0 mm 1 mps 754 mmHg 74%
    03:00 +14°C° 0 mm 2 mps 753 mmHg 76%
    04:00 +13°C° 0 mm 2 mps 753 mmHg 78%
    05:00 +13°C° 0 mm 2 mps 753 mmHg 79%
    06:00 +15°C° 0 mm 2 mps 753 mmHg 77%
    07:00 +16°C° 0 mm 2 mps 753 mmHg 75%
    08:00 +18°C° 0 mm 3 mps 753 mmHg 73%
    09:00 +19°C° 0 mm 3 mps 753 mmHg 70%
    10:00 +21°C° 0 mm 3 mps 753 mmHg 66%
    11:00 +22°C° 0 mm 4 mps 752 mmHg 63%
    12:00 +23°C° 0 mm 4 mps 752 mmHg 63%
    13:00 +23°C° 0 mm 4 mps 752 mmHg 62%
    14:00 +23°C° 0 mm 4 mps 751 mmHg 62%
    15:00 +23°C° 0 mm 4 mps 751 mmHg 66%
    16:00 +22°C° 0 mm 3 mps 751 mmHg 70%
    17:00 +22°C° 0 mm 3 mps 751 mmHg 74%
    18:00 +20°C° 0 mm 3 mps 751 mmHg 78%
    19:00 +19°C° 0 mm 3 mps 751 mmHg 83%
    20:00 +18°C° 0 mm 3 mps 751 mmHg 87%
    21:00 +17°C° 0 mm 3 mps 751 mmHg 89%
    22:00 +17°C° 0 mm 3 mps 751 mmHg 91%
    23:00 +16°C° 0 mm 2 mps 752 mmHg 92%

    28 Agosto, Miércoles

    Tiempo Temperatura Precipitaciones Viento Presión Humedad
    00:00 +16°C° 0 mm 2 mps 751 mmHg 93%
    01:00 +15°C° 0 mm 2 mps 751 mmHg 93%
    02:00 +15°C° 0 mm 2 mps 751 mmHg 94%
    03:00 +14°C° 0 mm 2 mps 752 mmHg 94%
    04:00 +14°C° 0 mm 2 mps 752 mmHg 94%
    05:00 +13°C° 0 mm 2 mps 752 mmHg 94%
    06:00 +15°C° 0 mm 2 mps 752 mmHg 87%
    07:00 +17°C° 0 mm 2 mps 752 mmHg 81%
    08:00 +18°C° 0 mm 2 mps 753 mmHg 75%
    09:00 +19°C° 0 mm 3 mps 753 mmHg 70%
    10:00 +20°C° 0 mm 3 mps 753 mmHg 65%
    11:00 +21°C° 0 mm 3 mps 753 mmHg 59%
    12:00 +21°C° 0 mm 3 mps 753 mmHg 59%
    13:00 +21°C° 0 mm 3 mps 753 mmHg 59%
    14:00 +21°C° 0 mm 4 mps 753 mmHg 59%
    15:00 +21°C° 0 mm 3 mps 753 mmHg 62%
    16:00 +20°C° 0 mm 3 mps 753 mmHg 65%
    17:00 +20°C° 0 mm 3 mps 753 mmHg 68%
    18:00 +18°C° 0 mm 3 mps 753 mmHg 70%
    19:00 +16°C° 0 mm 3 mps 753 mmHg 71%
    20:00 +13°C° 0 mm 3 mps 753 mmHg 73%
    21:00 +13°C° 0 mm 2 mps 754 mmHg 73%
    22:00 +13°C° 0 mm 2 mps 754 mmHg 73%
    23:00 +12°C° 0 mm 2 mps 754 mmHg 73%
    Mostrar más